Weather in Druzhba

Ukraine / Sumi District     52˚02′28″N   33˚56′37″E
temp.,
°C
wind,
m/s
gust,
m/s
humid.,
%
clouds,
%
prec.,
mm/h
press.,
hPa
HPBL,
m
29 november, sun
sun2923:00+2˚se3595100 0.4 1018270
02:00+2˚sse3597100 1.1 1018211
05:00+3˚sse3598100 1.5 1018257
08:00+3˚s2499100 3.5 1018201
11:00+3˚s2398100 4.6 1019237
14:00+1˚s3597100 9.6 1020203
17:00+2˚sse2497100 1.3 1021177
20:00+2˚s2398100 1.4 1022256
30 november, mon
mon3023:00+2˚s2498100 0.3 1023269
02:00+2˚wnw2398100 2.8 1023181
05:00+1˚nw2398100 3.5 1023117
08:00+1˚nw3398100 4.6 1024125
11:00+1˚wnw3498100 1.8 1024141
14:00nw4599100 4.1 1025206
17:00nnw4698100 2.3 1025259
20:00n4799100 5.1 1026286
1 december, tue
tue123:00n4799100 2.3 1026277
02:00n4799100 4.0 1027241
05:00n3599100 0.9 1027204
08:00nne12100100 1.9 1028107
11:00+1˚se25100100 0.2 1029212
14:00+1˚e2497100 0.2 1029122
17:00e3792100 0.0 1029163
20:00ese4891100 0.0 1031390
2 december, wed
wed223:00−1˚ese4789100 0.0 1031326
02:00−3˚e3690100 0.0 1031147
05:00−3˚e3889100 0.0 1031210
08:00−3˚ese4986100 0.0 1031340
11:00−2˚ese5980100 0.0 1031533
14:00−2˚ese5979100 0.0 1030510
17:00−3˚ese41079100 0.0 1030400
20:00−3˚ese51086100 0.0 1030529
3 december, thu
thu323:00−3˚se51092100 0.1 1030523
02:00−3˚ese599299 0.2 1030501
05:00−3˚se599498 0.1 1030480
08:00−3˚se599497 0.6 1030489
11:00−2˚se589397 0.3 1030509
14:00−2˚ese589599 0.6 1029489
17:00−3˚se599598 0.4 1029454
20:00−4˚se499496 0.6 1029378